Погода в Хрущеве

Россия / Рязанская область     54°10′41″N   40°00′03″E
темп.,
°C
ветер,
м/с
пор.,
м/с
влажн.,
%
обл.,
%
осадки,
мм/ч
давл.,
гПа
погр.,
м
8 марта, пн
пн800:00−6зюз5149290 0.1 996479
03:00−9зюз5138555 0.1 999272
06:00−9зюз6138863 0.0 998353
09:00−6зюз7139281 0.2 998798
12:00−5зсз91385100 0.3 9991360
15:00−5зсз7108096 0.4 10021108
18:00−9зсз468620 0.0 100593
21:00−11зсз348911 0.0 100840
9 марта, вт
вт900:00−12сз339559 0.0 100932
03:00−14сз349673 0.0 101145
06:00−16сз469592 0.0 101293
09:00−15ссз479585 0.1 1014250
12:00−12ссз479195 0.0 1015479
15:00−11сз578897 0.1 1016639
18:00−14сз4793100 0.1 1017145
21:00−17сз479699 0.1 1020107
10 марта, ср
ср1000:00−19ссз359896 0.1 102187
03:00−22сз449891 0.1 102366
06:00−25сз44980 0.0 102565
09:00−23ссз36950 0.0 1026192
12:00−19ссз35920 0.0 1027305
15:00−16ссз35864 0.0 1027433
18:00−19сз33910 0.0 102720
21:00−21с23910 0.0 102920
11 марта, чт
чт1100:00−23ссв22900 0.0 103020
03:00−25с12890 0.0 103120
06:00−26ссз12910 0.0 103220
09:00−21сз22910 0.0 103368
12:00−16сз22820 0.0 1032274
15:00−14зсз22800 0.0 1032314
18:00−18з22890 0.0 103320
21:00−20юз22860 0.0 103420
12 марта, пт
пт1200:00−21юз33870 0.0 103420
03:00−22ю34820 0.0 103431
06:00−23ю44920 0.0 103469
09:00−19ю510800 0.0 1032264
12:00−13ю6117860 0.0 1031403
15:00−10ю7127780 0.0 1028530
18:00−12ююв81582100 0.0 1026439
21:00−10ю81881100 0.0 1024555